{"data":{"norad_id":64142,"epoch":"2026-05-24T23:31:24.598848Z","epoch_age_seconds":79861,"freshness":"FRESH","line1":"1 64142U 25111V   26144.98014582  .00012811  00000+0  47413-3 0  9995","line2":"2 64142  43.0018   6.7948 0001153 267.5519  92.5201 15.27588827 57132","mean_motion":15.27588827,"eccentricity":0.0001153,"inclination_deg":43.0018,"raan_deg":6.7948,"arg_perigee_deg":267.5519,"mean_anomaly_deg":92.5201,"bstar":0.00047413,"rev_number":5713,"period_min":94.266204003861,"perigee_km":482.23157324406,"apogee_km":483.8137566628,"semimajor_km":6861.1596649534,"source":"CELESTRAK","updated_at":"2026-05-25T13:38:20.299875Z"}}